Location: Coxheath Shoals
(50.8167°N, 0.4333°E)
Time: 07:28:57
(UTC+00:00)

Cosmos 2221 - Pass Details

Date: 17 December 2025
Orbit: 567 x 589 km, 82.5° (Epoch: 20 April)

Event Time Altitude Azimuth Distance (km) Brightness Sun altitude
Exits shadow 04:44:52 32° 53° (NE) 997 4.0 -28.7°
Maximum altitude 04:45:28 33° 72° (ENE) 964 4.0 -28.6°
Drops below altitude 10° 04:49:13 10° 137° (SE) 1,869 5.6 -28.0°
Enters shadow 06:00:01 -39° 354° (N) 8,936 8.4 -17.0°
